Regional Weather Roundup
Issued by NWS

Home | Current Version | Previous Version | Graphics & Text | Print | Product List | Glossary Off
Versions: 1 2 3 4 5 6 7 8 9 10 11 12 13 14 15 16 17 18 19 20 21 22 23 24 25 26 27 28 29 30 31 32 33 34 35 36 37 38 39 40 41 42 43 44 45 46 47 48 49 50

000
ASUS43 KTOP 231359
RWRKS

WEATHER ROUNDUP FOR KANSAS
NATIONAL WEATHER SERVICE GOODLAND KS
900 AM CDT THU OCT 23 2014

NOTE:  "FAIR" INDICATES FEW OR NO CLOUDS BELOW 12,000 FEET WITH NO
SIGNIFICANT WEATHER AND/OR OBSTRUCTIONS TO VISIBILITY.

KSZ001>006-013>018-027>032-041>047-231500-
NORTHWEST KANSAS

CITY           SKY/WX    TMP DP  RH WIND       PRES   REMARKS
GOODLAND       PTCLDY    46  43  89 W5        30.15R
HAYS           CLOUDY    57  52  82 E3        30.10R VSB 1/4
HILL CITY      FOG       54  54 100 CALM      30.10R VSB 1/4
RUSSELL        CLOUDY    57  56  96 CALM      30.08R FOG
$$

KSZ061>065-074>080-084>089-231500-
SOUTHWEST KANSAS

CITY           SKY/WX    TMP DP  RH WIND       PRES   REMARKS
DODGE CITY     CLOUDY    59  57  93 SE3       30.10R FOG
ELKHART          N/A     51  46  83 NW5         N/A
GARDEN CITY    FOG       57  57 100 E3        30.09R VSB 1/4
GREAT BEND     CLOUDY    61  55  82 S6        30.09R
LIBERAL        CLOUDY    54  48  82 CALM      30.10R VSB<1/4
$$

KSZ066>073-081>083-090>101-231500-
SOUTHEAST KANSAS

CITY           SKY/WX    TMP DP  RH WIND       PRES   REMARKS
CHANUTE        CLOUDY    59  58  96 S12       30.13R
COFFEYVILLE    LGT RAIN  59  57  93 S9        30.15R
HUTCHINSON     CLOUDY    61  57  87 S5        30.09R
NEWTON         CLOUDY    61  54  77 S7        30.12R
PARSONS        CLOUDY    59  58  96 S7        30.15R
WICHITA INTL   CLOUDY    62  59  90 S7        30.09S
WICHITA JABRA  CLOUDY    62  60  93 S8        30.10R
WINFIELD       CLOUDY    62  60  93 S7        30.12R
$$

KSZ007>012-019>026-033>040-048>060-102>105-231500-
NORTHEAST KANSAS

CITY           SKY/WX    TMP DP  RH WIND       PRES   REMARKS
CONCORDIA      CLOUDY    61  60  97 CALM      30.08R FOG
EMPORIA        CLOUDY    61  61 100 S12       30.10R FOG
LAWRENCE       PTSUNNY   59  57  93 S7        30.08R
MANHATTAN      CLOUDY    61  60  97 S7        30.08R FOG
OLATHE IND     CLOUDY    58  58 100 S8        30.10R
OLATHE EXE     CLOUDY    58  58 100 SW8       30.09R FOG
SALINA         CLOUDY    62  59  90 S6        30.08R
TOPEKA BILLARD CLOUDY    63  60  90 SW8       30.08R
TOPEKA FORBES  CLOUDY    61  59  93 S10       30.08R
$$



USA.gov is the U.S. government's official web portal to all federal, state and local government web resources and services.